Terminal Aerodrome Forecast
Issued by NWS Knoxville/Tri Cities, TN

Home | Current Version | Previous Version | Text Only | Print | Product List | Glossary On
Versions: 1 2 3 4 5 6 7 8 9 10 11 12 13 14 15 16 17 18 19 20 21 22 23 24 25 26 27 28 29 30 31 32 33 34 35 36 37 38 39 40
000
FTUS44 KMRX 211810 AAA
TAFTRI
TAF AMD
KTRI 211810Z 2118/2218 29011KT P6SM VCSH BKN045
     FM220200 30005KT P6SM BKN035
     FM220700 29003KT P6SM BKN025
     FM221400 30007KT P6SM BKN040=

USA.gov is the U.S. government's official web portal to all federal, state and local government web resources and services.